RYR7P GMAD-LPPT

Flight info

Callsign RYR7P
Flight time 1h 23m
Altitude 38000
Route MOGBA UH300 ESS DCT TAKAV DCT VATZI
Aircraft B38M/M-SDE1FGHILORVWXY/HB1

Departure

Time 2026-05-05 16:55
Airport Al Massira Airport (GMAD)

Arrival

Time 2026-05-05 18:18
Airport Lisbon Humberto Delgado Airport (LPPT)
Time Latitude Longitude Altitude Speed Heading
2026-05-05 16:24 30.32879 -9.41095 234 ft 0 kts
2026-05-05 16:45 30.32878 -9.41095 234 ft 2 kts
2026-05-05 16:45 30.32853 -9.41097 237 ft 4 kts 11°
2026-05-05 16:46 30.32828 -9.41106 234 ft 4 kts 30°
2026-05-05 16:46 30.32812 -9.41126 237 ft 4 kts 79°
2026-05-05 16:46 30.32811 -9.41133 237 ft 1 kts 91°
2026-05-05 16:49 30.32811 -9.41115 235 ft 5 kts 91°
2026-05-05 16:50 30.32809 -9.41049 234 ft 12 kts 91°
2026-05-05 16:50 30.32806 -9.40922 234 ft 19 kts 92°
2026-05-05 16:50 30.32802 -9.40788 237 ft 15 kts 91°
2026-05-05 16:50 30.32781 -9.40677 236 ft 11 kts 132°
2026-05-05 16:51 30.32698 -9.40665 235 ft 14 kts 182°
2026-05-05 16:51 30.32586 -9.40669 234 ft 18 kts 182°
2026-05-05 16:51 30.32461 -9.40663 234 ft 15 kts 149°
2026-05-05 16:51 30.32436 -9.40539 234 ft 18 kts 91°
2026-05-05 16:52 30.32432 -9.40380 236 ft 21 kts 91°
2026-05-05 16:52 30.32428 -9.40194 234 ft 25 kts 91°
2026-05-05 16:52 30.32422 -9.39983 234 ft 28 kts 91°
2026-05-05 16:52 30.32417 -9.39760 234 ft 29 kts 91°
2026-05-05 16:53 30.32413 -9.39590 233 ft 13 kts 91°
2026-05-05 16:53 30.32393 -9.39506 234 ft 11 kts 143°
2026-05-05 16:53 30.32328 -9.39496 236 ft 0 kts 182°
2026-05-05 16:53 30.32325 -9.39496 235 ft 2 kts 182°
2026-05-05 16:54 30.32294 -9.39498 233 ft 8 kts 182°
2026-05-05 16:54 30.32233 -9.39503 238 ft 3 kts 203°
2026-05-05 16:54 30.32224 -9.39529 233 ft 5 kts 262°
2026-05-05 16:54 30.32226 -9.39583 233 ft 9 kts 272°
2026-05-05 16:55 30.32230 -9.39807 234 ft 62 kts 271°
2026-05-05 16:55 30.32252 -9.40594 234 ft 130 kts 272°
2026-05-05 16:55 30.32310 -9.41796 504 ft 157 kts 267°
2026-05-05 16:55 30.32374 -9.43036 1346 ft 150 kts 275°
2026-05-05 16:56 30.32437 -9.44266 2054 ft 159 kts 274°
2026-05-05 16:56 30.32453 -9.45609 2602 ft 177 kts 274°
2026-05-05 16:56 30.32458 -9.47086 3282 ft 190 kts 274°
2026-05-05 16:56 30.32492 -9.48688 3966 ft 206 kts 275°
2026-05-05 16:57 30.32329 -9.50404 4720 ft 224 kts 255°
2026-05-05 16:57 30.31616 -9.52103 5320 ft 251 kts 233°
2026-05-05 16:57 30.30298 -9.53536 6039 ft 269 kts 223°
2026-05-05 16:57 30.28883 -9.55006 6836 ft 274 kts 226°
2026-05-05 16:58 30.27612 -9.56647 7797 ft 273 kts 242°
2026-05-05 16:58 30.26932 -9.58677 8767 ft 272 kts 255°
2026-05-05 16:58 30.26398 -9.60794 9638 ft 276 kts 256°
2026-05-05 16:58 30.25880 -9.62950 10477 ft 282 kts 256°
2026-05-05 16:59 30.25356 -9.65200 11102 ft 295 kts 256°
2026-05-05 16:59 30.24828 -9.67501 12012 ft 296 kts 257°
2026-05-05 16:59 30.24633 -9.69870 12929 ft 299 kts 276°
2026-05-05 16:59 30.25289 -9.72154 13881 ft 305 kts 298°
2026-05-05 17:00 30.26708 -9.74008 14761 ft 315 kts 319°
2026-05-05 17:00 30.28695 -9.75167 15678 ft 328 kts 339°
2026-05-05 17:00 30.30984 -9.75629 16512 ft 336 kts 343°
2026-05-05 17:00 30.33127 -9.76589 17284 ft 331 kts 324°
2026-05-05 17:01 30.35251 -9.77704 18072 ft 346 kts 342°
2026-05-05 17:01 30.37674 -9.77712 18877 ft 360 kts
2026-05-05 17:01 30.40163 -9.77326 19549 ft 363 kts 358°
2026-05-05 17:01 30.42695 -9.77088 20243 ft 366 kts 358°
2026-05-05 17:02 30.45242 -9.76860 20956 ft 369 kts 357°
2026-05-05 17:02 30.47817 -9.76638 21655 ft 373 kts 357°
2026-05-05 17:02 30.50421 -9.76415 22357 ft 376 kts 356°
2026-05-05 17:02 30.53044 -9.76193 23050 ft 380 kts 356°
2026-05-05 17:03 30.55696 -9.75967 23697 ft 384 kts 356°
2026-05-05 17:03 30.58376 -9.75735 24268 ft 387 kts 356°
2026-05-05 17:03 30.61084 -9.75501 24842 ft 391 kts 356°
2026-05-05 17:03 30.63812 -9.75266 25414 ft 395 kts 356°
2026-05-05 17:04 30.66510 -9.75032 25948 ft 399 kts 355°
2026-05-05 17:04 30.69276 -9.74767 26500 ft 400 kts 355°
2026-05-05 17:04 30.72078 -9.74530 26996 ft 404 kts 355°
2026-05-05 17:04 30.74896 -9.74300 27527 ft 408 kts 355°
2026-05-05 17:05 30.77751 -9.74057 27998 ft 412 kts 355°
2026-05-05 17:05 30.80619 -9.73810 28540 ft 415 kts 355°
2026-05-05 17:05 30.83524 -9.73559 29045 ft 419 kts 355°
2026-05-05 17:05 30.86443 -9.73305 29543 ft 423 kts 355°
2026-05-05 17:06 30.89388 -9.73050 30026 ft 426 kts 355°
2026-05-05 17:06 30.92358 -9.72792 30426 ft 429 kts 355°
2026-05-05 17:06 30.95347 -9.72532 30841 ft 432 kts 355°
2026-05-05 17:06 30.98354 -9.72271 31259 ft 435 kts 355°
2026-05-05 17:07 31.01354 -9.72011 31663 ft 438 kts 354°
2026-05-05 17:07 31.04405 -9.71751 32050 ft 441 kts 354°
2026-05-05 17:07 31.07475 -9.71490 32449 ft 444 kts 354°
2026-05-05 17:07 31.10562 -9.71226 32851 ft 447 kts 354°
2026-05-05 17:08 31.13685 -9.70960 33246 ft 450 kts 354°
2026-05-05 17:08 31.16822 -9.70692 33626 ft 453 kts 354°
2026-05-05 17:08 31.19972 -9.70422 34023 ft 456 kts 353°
2026-05-05 17:08 31.23140 -9.70150 34355 ft 458 kts 353°
2026-05-05 17:09 31.26339 -9.69875 34707 ft 460 kts 353°
2026-05-05 17:09 31.29534 -9.69601 35128 ft 460 kts 353°
2026-05-05 17:09 31.32729 -9.69327 35571 ft 460 kts 353°
2026-05-05 17:09 31.35916 -9.69054 35998 ft 459 kts 353°
2026-05-05 17:10 31.39094 -9.68784 36416 ft 457 kts 353°
2026-05-05 17:10 31.42230 -9.68581 36810 ft 456 kts 352°
2026-05-05 17:10 31.45397 -9.68379 37221 ft 455 kts 352°
2026-05-05 17:10 31.48553 -9.68174 37611 ft 454 kts 352°
2026-05-05 17:11 31.51708 -9.67967 37960 ft 454 kts 352°
2026-05-05 17:11 31.54875 -9.67758 38037 ft 455 kts 352°
2026-05-05 17:11 31.61157 -9.67345 38010 ft 451 kts 352°
2026-05-05 17:12 31.67422 -9.66932 38009 ft 451 kts 352°
2026-05-05 17:12 31.73694 -9.66518 38013 ft 451 kts 352°
2026-05-05 17:13 31.78904 -9.66174 38022 ft 451 kts 352°
2026-05-05 17:13 31.85166 -9.65760 38013 ft 451 kts 353°
2026-05-05 17:14 31.91436 -9.65345 38029 ft 451 kts 353°
2026-05-05 17:14 31.97702 -9.64929 38029 ft 451 kts 353°
2026-05-05 17:15 32.03974 -9.64513 38034 ft 451 kts 353°
2026-05-05 17:15 32.10200 -9.64099 38034 ft 451 kts 353°
2026-05-05 17:16 32.16474 -9.63681 38040 ft 451 kts 353°
2026-05-05 17:16 32.22756 -9.63262 38040 ft 452 kts 353°
2026-05-05 17:17 32.29033 -9.62843 38044 ft 452 kts 353°
2026-05-05 17:17 32.35314 -9.62423 38042 ft 452 kts 353°
2026-05-05 17:18 32.41608 -9.62002 38045 ft 453 kts 353°
2026-05-05 17:18 32.47859 -9.61583 38049 ft 453 kts 353°
2026-05-05 17:19 32.54156 -9.61160 38049 ft 453 kts 354°
2026-05-05 17:19 32.60453 -9.60736 38046 ft 453 kts 354°
2026-05-05 17:20 32.66752 -9.60312 38053 ft 453 kts 354°
2026-05-05 17:20 32.73047 -9.59888 38048 ft 453 kts 354°
2026-05-05 17:21 32.79357 -9.59462 38059 ft 453 kts 354°
2026-05-05 17:22 32.88763 -9.58825 38055 ft 453 kts 354°
2026-05-05 17:22 32.95063 -9.58399 38053 ft 453 kts 354°
2026-05-05 17:23 33.01351 -9.57972 38064 ft 453 kts 354°
2026-05-05 17:23 33.07657 -9.57543 38062 ft 453 kts 354°
2026-05-05 17:24 33.13948 -9.57115 38072 ft 452 kts 354°
2026-05-05 17:24 33.20235 -9.56686 38071 ft 452 kts 354°
2026-05-05 17:25 33.26520 -9.56257 38068 ft 452 kts 355°
2026-05-05 17:25 33.32798 -9.55827 38284 ft 452 kts 356°
2026-05-05 17:25 33.35914 -9.55084 37961 ft 451 kts
2026-05-05 17:26 33.38962 -9.54328 38027 ft 447 kts
2026-05-05 17:26 33.42032 -9.54191 38050 ft 435 kts 347°
2026-05-05 17:26 33.45021 -9.54527 38049 ft 444 kts 351°
2026-05-05 17:27 33.51280 -9.54459 38071 ft 453 kts 355°
2026-05-05 17:27 33.57580 -9.54113 38068 ft 453 kts 356°
2026-05-05 17:28 33.63874 -9.53694 38071 ft 453 kts 356°
2026-05-05 17:28 33.70161 -9.53261 38071 ft 452 kts 357°
2026-05-05 17:29 33.76446 -9.52827 38072 ft 452 kts 357°
2026-05-05 17:29 33.82733 -9.52393 38075 ft 452 kts 357°
2026-05-05 17:30 33.89017 -9.51958 38075 ft 452 kts 357°
2026-05-05 17:30 33.95255 -9.51525 38077 ft 452 kts 357°
2026-05-05 17:31 34.01530 -9.51089 38077 ft 452 kts 358°
2026-05-05 17:31 34.07798 -9.50653 38076 ft 451 kts 358°
2026-05-05 17:32 34.14068 -9.50217 38082 ft 451 kts 358°
2026-05-05 17:32 34.20336 -9.49779 38079 ft 451 kts 358°
2026-05-05 17:33 34.26592 -9.49342 38076 ft 450 kts 358°
2026-05-05 17:33 34.32841 -9.48905 38080 ft 450 kts 358°
2026-05-05 17:34 34.39098 -9.48467 38083 ft 449 kts 358°
2026-05-05 17:34 34.45330 -9.48029 38083 ft 449 kts 358°
2026-05-05 17:35 34.51531 -9.47593 38084 ft 449 kts 358°
2026-05-05 17:35 34.57769 -9.47154 38087 ft 448 kts 358°
2026-05-05 17:36 34.63989 -9.46715 38087 ft 448 kts 358°
2026-05-05 17:36 34.70205 -9.46277 38083 ft 447 kts 358°
2026-05-05 17:37 34.76417 -9.45837 38089 ft 447 kts 359°
2026-05-05 17:37 34.82628 -9.45398 38087 ft 446 kts 359°
2026-05-05 17:38 34.88827 -9.44958 38085 ft 446 kts 359°
2026-05-05 17:38 34.94988 -9.44521 38087 ft 445 kts 359°
2026-05-05 17:39 35.01176 -9.44080 38083 ft 445 kts 359°
2026-05-05 17:39 35.07362 -9.43639 38086 ft 445 kts 359°
2026-05-05 17:40 35.13545 -9.43198 38088 ft 444 kts 359°
2026-05-05 17:40 35.19720 -9.42757 38086 ft 444 kts 359°
2026-05-05 17:41 35.25878 -9.42316 38097 ft 443 kts 359°
2026-05-05 17:41 35.32045 -9.41874 38095 ft 443 kts 358°
2026-05-05 17:42 35.38191 -9.41433 38084 ft 442 kts 358°
2026-05-05 17:42 35.44315 -9.40993 38090 ft 442 kts 358°
2026-05-05 17:43 35.50455 -9.40551 38094 ft 442 kts 358°
2026-05-05 17:43 35.56595 -9.40108 38085 ft 441 kts 358°
2026-05-05 17:44 35.62728 -9.39665 38090 ft 441 kts 358°
2026-05-05 17:44 35.68826 -9.39224 38092 ft 441 kts 358°
2026-05-05 17:45 35.74966 -9.38779 38094 ft 441 kts 358°
2026-05-05 17:45 35.81101 -9.38334 38087 ft 441 kts 358°
2026-05-05 17:46 35.87238 -9.37888 38089 ft 442 kts 358°
2026-05-05 17:46 35.93376 -9.37442 38092 ft 442 kts 358°
2026-05-05 17:46 35.96440 -9.36952 38078 ft 447 kts
2026-05-05 17:47 35.99454 -9.35955 38093 ft 448 kts
2026-05-05 17:47 36.05511 -9.34090 38092 ft 448 kts
2026-05-05 17:48 36.11535 -9.32259 38085 ft 448 kts
2026-05-05 17:48 36.17589 -9.30418 38087 ft 448 kts
2026-05-05 17:49 36.23654 -9.28570 38087 ft 448 kts
2026-05-05 17:49 36.29718 -9.26722 38087 ft 447 kts
2026-05-05 17:50 36.35765 -9.24873 38085 ft 448 kts
2026-05-05 17:50 36.41785 -9.23030 38088 ft 447 kts
2026-05-05 17:51 36.47832 -9.21177 38087 ft 447 kts
2026-05-05 17:51 36.53887 -9.19318 38086 ft 447 kts
2026-05-05 17:52 36.59899 -9.17468 38089 ft 447 kts
2026-05-05 17:52 36.65936 -9.15609 38087 ft 447 kts
2026-05-05 17:53 36.71972 -9.13747 38084 ft 447 kts
2026-05-05 17:53 36.78013 -9.11880 38083 ft 447 kts
2026-05-05 17:54 36.84061 -9.10008 38082 ft 447 kts
2026-05-05 17:54 36.90097 -9.08136 38081 ft 447 kts
2026-05-05 17:55 36.96089 -9.06276 38080 ft 447 kts
2026-05-05 17:55 37.02124 -9.04399 38079 ft 447 kts
2026-05-05 17:56 37.08166 -9.02516 38080 ft 447 kts
2026-05-05 17:56 37.11184 -9.01575 37730 ft 444 kts
2026-05-05 17:56 37.14218 -9.00629 36465 ft 457 kts
2026-05-05 17:56 37.17361 -8.99657 35139 ft 470 kts
2026-05-05 17:57 37.20575 -8.99211 34074 ft 457 kts 353°
2026-05-05 17:57 37.23624 -8.99644 33185 ft 440 kts 343°
2026-05-05 17:57 37.26631 -9.00266 32282 ft 434 kts 346°
2026-05-05 17:57 37.29596 -9.00811 31319 ft 428 kts 346°
2026-05-05 17:58 37.32554 -9.01337 30366 ft 428 kts 346°
2026-05-05 17:58 37.35505 -9.01851 29314 ft 428 kts 346°
2026-05-05 17:58 37.38442 -9.02361 28285 ft 422 kts 347°
2026-05-05 17:58 37.41325 -9.02862 27321 ft 415 kts 347°
2026-05-05 17:59 37.44176 -9.03358 26396 ft 409 kts 347°
2026-05-05 17:59 37.46972 -9.03845 25530 ft 403 kts 347°
2026-05-05 17:59 37.48807 -9.04164 24979 ft 399 kts 348°
2026-05-05 17:59 37.51537 -9.04640 24178 ft 393 kts 348°
2026-05-05 18:00 37.55091 -9.05261 23073 ft 385 kts 348°
2026-05-05 18:00 37.56872 -9.05573 22485 ft 381 kts 348°
2026-05-05 18:00 37.59478 -9.06029 21648 ft 375 kts 348°
2026-05-05 18:00 37.62049 -9.06478 20845 ft 370 kts 348°
2026-05-05 18:01 37.64585 -9.06922 20076 ft 365 kts 348°
2026-05-05 18:01 37.67081 -9.07359 19344 ft 359 kts 348°
2026-05-05 18:01 37.69509 -9.07784 18654 ft 354 kts 348°
2026-05-05 18:01 37.71935 -9.08209 17897 ft 349 kts 349°
2026-05-05 18:02 37.74317 -9.08627 17136 ft 344 kts 349°
2026-05-05 18:02 37.76661 -9.09038 16403 ft 338 kts 348°
2026-05-05 18:02 37.78961 -9.09443 15871 ft 327 kts 349°
2026-05-05 18:02 37.81197 -9.09836 15425 ft 326 kts 349°
2026-05-05 18:03 37.83476 -9.10237 15002 ft 332 kts 349°
2026-05-05 18:03 37.85768 -9.10638 14589 ft 334 kts 349°
2026-05-05 18:03 37.88065 -9.11040 14199 ft 332 kts 349°
2026-05-05 18:03 37.90337 -9.11446 13920 ft 326 kts 349°
2026-05-05 18:04 37.92560 -9.11855 13528 ft 321 kts 349°
2026-05-05 18:04 37.94779 -9.12258 12918 ft 324 kts 349°
2026-05-05 18:04 37.97010 -9.12633 12489 ft 321 kts 350°
2026-05-05 18:04 37.99204 -9.13009 12127 ft 316 kts 350°
2026-05-05 18:05 38.01372 -9.13388 11767 ft 312 kts 350°
2026-05-05 18:05 38.03509 -9.13765 11382 ft 309 kts 350°
2026-05-05 18:05 38.05626 -9.14140 11011 ft 306 kts 350°
2026-05-05 18:05 38.07682 -9.14503 10835 ft 296 kts 350°
2026-05-05 18:06 38.09682 -9.14858 10674 ft 286 kts 350°
2026-05-05 18:06 38.11001 -9.15092 10575 ft 280 kts 349°
2026-05-05 18:06 38.13509 -9.15537 10394 ft 268 kts 349°
2026-05-05 18:06 38.15325 -9.15859 10252 ft 259 kts 349°
2026-05-05 18:07 38.17101 -9.16175 10144 ft 260 kts 350°
2026-05-05 18:07 38.18909 -9.16495 10069 ft 263 kts 350°
2026-05-05 18:07 38.20728 -9.16818 10074 ft 264 kts 349°
2026-05-05 18:07 38.22551 -9.17143 10072 ft 264 kts 350°
2026-05-05 18:08 38.24374 -9.17467 10069 ft 264 kts 350°
2026-05-05 18:08 38.26168 -9.17784 10074 ft 255 kts 350°
2026-05-05 18:08 38.27884 -9.18088 10072 ft 241 kts 349°
2026-05-05 18:08 38.29501 -9.18376 10073 ft 228 kts 349°
2026-05-05 18:09 38.31013 -9.18646 10017 ft 220 kts 349°
2026-05-05 18:09 38.32577 -9.18926 9587 ft 235 kts 349°
2026-05-05 18:09 38.34249 -9.19225 9055 ft 249 kts 350°
2026-05-05 18:09 38.35977 -9.19529 8520 ft 253 kts 351°
2026-05-05 18:10 38.37730 -9.19841 7990 ft 254 kts 351°
2026-05-05 18:10 38.39478 -9.20153 7466 ft 253 kts 351°
2026-05-05 18:10 38.41210 -9.20462 6954 ft 249 kts 352°
2026-05-05 18:10 38.42920 -9.20767 6466 ft 247 kts 352°
2026-05-05 18:11 38.44615 -9.21070 5941 ft 246 kts 352°
2026-05-05 18:11 38.46309 -9.21373 5407 ft 243 kts 352°
2026-05-05 18:11 38.47944 -9.21663 5156 ft 231 kts 352°
2026-05-05 18:11 38.49488 -9.21940 4990 ft 220 kts 352°
2026-05-05 18:12 38.50984 -9.22207 4854 ft 213 kts 352°
2026-05-05 18:12 38.52434 -9.22468 4710 ft 207 kts 352°
2026-05-05 18:12 38.53836 -9.22718 4567 ft 200 kts 352°
2026-05-05 18:12 38.55186 -9.22960 4433 ft 194 kts 352°
2026-05-05 18:13 38.56515 -9.23199 4321 ft 192 kts 352°
2026-05-05 18:13 38.57837 -9.23434 4192 ft 191 kts 352°
2026-05-05 18:13 38.59159 -9.23540 4011 ft 192 kts
2026-05-05 18:13 38.60446 -9.23083 3798 ft 193 kts 20°
2026-05-05 18:14 38.61681 -9.22398 3585 ft 192 kts 20°
2026-05-05 18:14 38.62882 -9.21743 3388 ft 185 kts 20°
2026-05-05 18:14 38.64059 -9.21113 3108 ft 181 kts 19°
2026-05-05 18:14 38.65170 -9.20521 2846 ft 170 kts 19°
2026-05-05 18:15 38.66233 -9.19952 2608 ft 161 kts 18°
2026-05-05 18:15 38.67257 -9.19405 2398 ft 155 kts 18°
2026-05-05 18:15 38.68228 -9.18887 2187 ft 152 kts 18°
2026-05-05 18:15 38.69182 -9.18376 1990 ft 146 kts 18°
2026-05-05 18:16 38.70102 -9.17882 1787 ft 137 kts 18°
2026-05-05 18:16 38.70953 -9.17406 1657 ft 130 kts 18°
2026-05-05 18:16 38.71775 -9.16956 1416 ft 127 kts 17°
2026-05-05 18:16 38.72589 -9.16533 1246 ft 128 kts 14°
2026-05-05 18:17 38.73419 -9.16102 1122 ft 128 kts 17°
2026-05-05 18:17 38.74233 -9.15650 936 ft 127 kts 19°
2026-05-05 18:17 38.75054 -9.15226 745 ft 126 kts 17°
2026-05-05 18:17 38.75850 -9.14781 543 ft 124 kts 17°
2026-05-05 18:18 38.76670 -9.14370 381 ft 125 kts 17°
2026-05-05 18:18 38.77395 -9.13990 358 ft 96 kts 22°
2026-05-05 18:18 38.77839 -9.13754 357 ft 58 kts 20°
2026-05-05 18:18 38.78161 -9.13579 363 ft 36 kts 26°
2026-05-05 18:19 38.78343 -9.13395 359 ft 23 kts 46°
2026-05-05 18:19 38.78375 -9.13298 356 ft 12 kts 110°
2026-05-05 18:19 38.78319 -9.13265 358 ft 10 kts 191°
2026-05-05 18:19 38.78246 -9.13303 358 ft 10 kts 202°
2026-05-05 18:20 38.78176 -9.13341 358 ft 10 kts 203°
2026-05-05 18:20 38.78152 -9.13353 360 ft 0 kts 202°
2026-05-05 18:21 38.78150 -9.13354 359 ft 2 kts 202°
2026-05-05 18:21 38.78120 -9.13370 359 ft 8 kts 202°
2026-05-05 18:22 38.78046 -9.13410 359 ft 15 kts 203°
2026-05-05 18:22 38.77934 -9.13471 356 ft 19 kts 203°
2026-05-05 18:22 38.77811 -9.13508 357 ft 19 kts 170°
2026-05-05 18:22 38.77669 -9.13470 358 ft 23 kts 168°
2026-05-05 18:23 38.77506 -9.13427 354 ft 24 kts 168°
2026-05-05 18:23 38.77338 -9.13382 352 ft 25 kts 168°
2026-05-05 18:23 38.77161 -9.13334 354 ft 26 kts 168°
2026-05-05 18:23 38.76989 -9.13287 358 ft 25 kts 168°
2026-05-05 18:24 38.76837 -9.13246 356 ft 17 kts 168°
2026-05-05 18:24 38.76777 -9.13255 360 ft 7 kts 219°
2026-05-05 18:24 38.76756 -9.13323 360 ft 12 kts 258°
2026-05-05 18:24 38.76702 -9.13421 357 ft 14 kts 213°
2026-05-05 18:25 38.76650 -9.13512 356 ft 12 kts 258°
2026-05-05 18:25 38.76640 -9.13581 358 ft 11 kts 259°
2026-05-05 18:25 38.76608 -9.13666 357 ft 5 kts 197°
2026-05-05 18:25 38.76570 -9.13665 354 ft 7 kts 193°
2026-05-05 18:26 38.76540 -9.13734 360 ft 12 kts 258°
2026-05-05 18:26 38.76525 -9.13824 358 ft 5 kts 251°
2026-05-05 18:26 38.76505 -9.13839 356 ft 3 kts 185°
2026-05-05 18:26 38.76472 -9.13833 354 ft 5 kts 167°
2026-05-05 18:27 38.76450 -9.13828 359 ft 2 kts 168°
2026-05-05 18:27 38.76443 -9.13826 356 ft 0 kts 168°